Puerto Plata, Dominican Republic

12:58 AM AST on August 21, 2018 (GMT -0400)
Gregorio Luperon International

Weather History for MDPP - August, 2018

Change the Weather History Date:

Saturday, August 11, 2018

  Actual Average Record
Temperature  
Mean Temperature 85 °F -  
Max Temperature 95 °F 88 °F 95 °F (2015)
Min Temperature 75 °F 75 °F 72 °F (2016)
Cooling Degree Days 20    
Growing Degree Days 35 (Base 50)    
Moisture  
Dew Point 76 °F    
Average Humidity 74    
Maximum Humidity 94    
Minimum Humidity 56    
Precipitation  
Precipitation 0.00 in - - ()
Sea Level Pressure  
Sea Level Pressure 30.03 in    
Wind  
Wind Speed 6 mph ()    
Max Wind Speed 20 mph    
Max Gust Speed -    
Visibility 6.9 miles    
Events      
Averages and records for this station are not official NWS values.
T = Trace of Precipitation, MM = Missing Value Source: Averaged Metar Reports

Daily Weather History Graph

Daily Weather History Graph

Search for Another Location

Airport or City:

Astronomy

Aug. 11, 2018 Rise Set
Actual Time 6:21 AM AST 7:13 PM AST
Civil Twilight 5:58 AM AST 7:36 PM AST
Nautical Twilight 5:31 AM AST 8:03 PM AST
Astronomical Twilight 5:03 AM AST 8:30 PM AST
Moon 6:26 AM AST (8/11) 7:41 PM AST (8/11)
Length of Visible Light 13h 37m
Length of Day
12h 51m
New Moon, 0% of the Moon is Illuminated
Aug 11
New Moon
Aug 18
First Quarter
Aug 26
Full
Sep 2
Last Quarter
Sep 9
New

Hourly Weather History & Observations

Time (AST) Temp. Heat Index Dew Point Humidity Pressure Visibility Wind Dir Wind Speed Gust Speed Precip Events Conditions
2:00 AM 79 °F - 73 °F 77% 30.01 in 9 mi Calm Calm - -   Widespread Dust
2:00 AM 78.8 °F - 73.4 °F 83% 30.01 in 6.2 mi Calm Calm - N/A   Partly Cloudy
5:00 AM 75.2 °F - 73.4 °F 94% 30.01 in 6.2 mi Calm Calm - N/A   Partly Cloudy
7:00 AM 77.0 °F - 73.4 °F 89% 30.01 in 6.2 mi Calm Calm - N/A   Partly Cloudy
8:00 AM 79 °F - 74 °F 79% 30.04 in 9 mi Calm Calm - -   Widespread Dust
8:00 AM 78.8 °F - 73.4 °F 83% 30.04 in 6.2 mi Calm Calm - N/A   Partly Cloudy
9:00 AM 86.0 °F 95.1 °F 75.2 °F 70% 30.04 in 6.2 mi ENE 11.5 mph - N/A   Partly Cloudy
10:00 AM 89.6 °F 102.2 °F 77.0 °F 66% 30.04 in 6.2 mi ESE 5.8 mph - N/A   Partly Cloudy
11:00 AM 90 °F - 76 °F 56% 30.05 in 9 mi ENE 13.4 mph - -   Widespread Dust
11:00 AM 89.6 °F 102.2 °F 77.0 °F 66% 30.04 in 6.2 mi ENE 13.8 mph - N/A   Partly Cloudy
12:00 PM 91.4 °F 105.1 °F 77.0 °F 63% 30.04 in 6.2 mi ENE 13.8 mph - N/A   Partly Cloudy
1:00 PM 91.4 °F 105.1 °F 77.0 °F 63% 30.04 in 6.2 mi East 13.8 mph - N/A   Partly Cloudy
2:00 PM 91.4 °F 105.1 °F 77.0 °F 63% 30.04 in 6.2 mi East 18.4 mph - N/A   Partly Cloudy
3:00 PM 91.4 °F 105.1 °F 77.0 °F 63% 30.01 in 6.2 mi East 19.6 mph - N/A   Partly Cloudy
4:00 PM 89.6 °F 102.2 °F 77.0 °F 66% 30.01 in 6.2 mi ENE 17.3 mph - N/A   Partly Cloudy
5:00 PM 88 °F - 77 °F 62% 30.01 in 9 mi East 17.9 mph - -   Widespread Dust
5:00 PM 87.8 °F 99.7 °F 77.0 °F 70% 30.01 in 6.2 mi East 18.4 mph - N/A   Partly Cloudy
6:00 PM 84.2 °F 94.1 °F 77.0 °F 79% 30.01 in 6.2 mi East 17.3 mph - N/A   Partly Cloudy
7:00 PM 84.2 °F 92.3 °F 75.2 °F 74% 30.01 in 6.2 mi ENE 13.8 mph - N/A   Scattered Clouds
8:00 PM 83 °F - 76 °F 74% 30.03 in 9 mi East 8.9 mph - -   Widespread Dust
8:00 PM 82.4 °F 89.5 °F 75.2 °F 79% 30.01 in 6.2 mi East 9.2 mph - N/A   Scattered Clouds
9:00 PM 82.4 °F 89.5 °F 75.2 °F 79% 30.04 in 6.2 mi East 11.5 mph - N/A   Partly Cloudy
10:00 PM 80.6 °F 87.1 °F 77.0 °F 89% 30.06 in 6.2 mi East 3.5 mph - N/A   Partly Cloudy
11:00 PM 81 °F - 76 °F 81% 30.10 in 9 mi Calm Calm - -   Widespread Dust
11:00 PM 80.6 °F 87.1 °F 77.0 °F 89% 30.09 in 6.2 mi Calm Calm - N/A   Partly Cloudy